Aviation Digital Data Service (ADDS)

Output produced by METARs form (1937 UTC 25 March 2017)
found at http://www.aviationweather.gov/adds/metars/
 
LGAD 251920Z 00000KT CAVOK 11/10 Q1019
TAF LGAD 251700Z 2518/2603 30006KT 9999 FEW020
       
LGAL 251920Z VRB03KT 9999 FEW025 13/07 Q1017
TAF LGAL 251700Z 2518/2603 VRB03KT 9999 FEW020 
     BECMG 2519/2521 05010KT
       
LGAV 251920Z 26001KT CAVOK 14/08 Q1018 NOSIG
TAF LGAV 251700Z 2518/2618 VRB05KT 9999 FEW025 
     BECMG 2610/2612 04010KT
       
LGBL 251850Z 27004KT CAVOK 12/07 Q1016
TAF LGBL 251700Z 2518/2603 11006KT 9999 FEW030 
     BECMG 2518/2520 28006KT
       
LGEL 251920Z VRB03KT CAVOK 13/06 Q1017
TAF LGEL 251700Z 2518/2618 VRB05KT 9999 FEW025 
     BECMG 2601/2603 33010KT
       
LGHI 251750Z 20004KT CAVOK 13/11 Q1016
TAF LGHI 251700Z 2518/2603 VRB05KT 9999 FEW020
       
LGIO 251920Z AUTO /////KT //// -RA ////// 12/08 Q1019 RE//
TAF LGIO 251700Z 2518/2603 VRB03KT 9999 FEW035 
     PROB30 2600/2603 3000 BR SCT006
       
LGIR 251920Z 17006KT CAVOK 12/10 Q1018 NOSIG
TAF LGIR 251700Z 2518/2618 VRB05KT 9999 FEW020 
     BECMG 2518/2520 18010KT 
     BECMG 2607/2609 31012KT
       
TAF LGKC 251700Z 2518/2603 VRB05KT 9999 FEW018 
     BECMG 2518/2520 27010KT
       
LGKF 251750Z 32008KT 9999 FEW014 15/13 Q1019
TAF LGKF 251700Z 2518/2603 34010KT 9999 FEW020 
     BECMG 2518/2520 VRB03KT
       
LGKL 251920Z 32006KT CAVOK 13/10 Q1018
TAF LGKL 251700Z 2518/2603 VRB05KT 9999 FEW025
       
LGKO 251920Z 31009KT CAVOK 13/10 Q1016
TAF LGKO 251700Z 2518/2618 32012KT 9999 FEW025 
     BECMG 2610/2612 20010KT
       
LGKP 251920Z AUTO 29010KT //// // ////// 15/12 Q1017 RE//
TAF LGKP 251700Z 2518/2603 30016KT 9999 FEW020
       
LGKR 251920Z 24002KT 9999 FEW018 14/13 Q1019 NOSIG
TAF LGKR 251700Z 2518/2618 VRB05KT 9999 FEW014 
     BECMG 2608/2610 15010KT 
     PROB40 2600/2607 2000 BR SCT005 
     PROB30 2603/2606 0100 FG BKN004
       
LGKV 251920Z 01005KT 9999 FEW025 SCT080 13/09 Q1016
TAF LGKV 251700Z 2518/2603 VRB03KT 9999 FEW020 SCT080
       
LGLM 251920Z AUTO VRB01KT //// // ////// 12/07 Q1016 RE//
TAF LGLM 251700Z 2518/2603 04008KT 9999 FEW020
       
TAF LGLR 251700Z 2518/2603 VRB03KT 9999 FEW030
       
LGMK 251750Z 34004KT CAVOK 15/07 Q1017
TAF LGMK 251700Z 2518/2603 36010KT 9999 FEW020 
     BECMG 2518/2520 27010KT
       
LGMT 251920Z VRB03KT CAVOK 14/06 Q1017
TAF LGMT 251700Z 2518/2603 VRB05KT 9999 FEW020
       
LGPA 251920Z AUTO 05004KT //// // ////// 12/06 Q1017 RE//
LGPZ 251850Z 28006KT 9999 BKN025 OVC080 15/11 Q1019
TAF LGPZ 251700Z 2518/2618 27010KT 9999 FEW020 
     BECMG 2518/2520 05007KT 8000 FEW008 SCT015 
     PROB40 
     TEMPO 2520/2608 5000 BR SCT008 BKN015 
     PROB30 
     TEMPO 2604/2608 2000 BR SCT006 BKN015 
     BECMG 2609/2611 27010KT 9999 FEW020
       
LGRP 251920Z 24010KT CAVOK 15/13 Q1016 NOSIG
TAF LGRP 251700Z 2518/2618 25015KT 9999 FEW018
       
LGRX 251850Z 00000KT CAVOK 13/13 Q1019
TAF LGRX 251700Z 2518/2603 27008KT 9999 FEW020 
     BECMG 2518/2520 VRB03KT 8000 FEW008 SCT015 
     PROB30 
     TEMPO 2520/2603 5000 BR SCT008 BKN015
       
LGSA 251920Z 00000KT CAVOK 13/09 Q1018
TAF LGSA 251700Z 2518/2618 32010KT 9999 FEW025 
     BECMG 2607/2609 30012G22KT
       
LGSK 251750Z 02005KT CAVOK 14/11 Q1016
TAF LGSK 251700Z 2518/2603 VRB05KT 9999 FEW020
       
TAF LGSM 251700Z 2518/2603 VRB05KT 9999 FEW020
       
LGSR 251920Z 26007KT CAVOK 16/12 Q1017
TAF LGSR 251700Z 2518/2618 30014KT 9999 FEW020 
     BECMG 2602/2604 24015KT 9999 FEW015 
     TEMPO 2605/2609 SCT015
       
TAF LGST 251700Z 2518/2603 30012KT 9999 FEW030
       
TAF LGSY 251700Z 2518/2603 32008KT 9999 FEW025
       
TAF LGTG 251700Z 2518/2603 29006KT 9999 FEW030
       
TAF LGTL 251700Z 2518/2603 01008KT 9999 FEW020
       
LGTS 251920Z 13004KT 9999 -DZ FEW018TCU SCT030 17/08 Q1016 NOSIG
TAF LGTS 251700Z 2518/2618 VRB03KT 9999 FEW030 
     BECMG 2602/2604 5000 BR FEW008 
     PROB30 
     TEMPO 2604/2606 0600 FG BKN005 
     BECMG 2606/2608 9999 FEW030 
     BECMG 2610/2612 15010KT 9999 SCT030 
     TEMPO 2614/2618 6000 RA FEW010 SCT025 
     PROB40 
     TEMPO 2615/2618 3000 TSRA SCT008 FEW018CB BKN025 
     BECMG 2616/2618 34015KT
       
LGZA 251750Z 00000KT 9999 FEW025 15/14 Q1019
TAF LGZA 251700Z 2518/2603 VRB05KT 9999 FEW025
       
LGPZ 251850Z 28006KT 9999 BKN025 OVC080 15/11 Q1019
TAF LGPZ 251700Z 2518/2618 27010KT 9999 FEW020 
     BECMG 2518/2520 05007KT 8000 FEW008 SCT015 
     PROB40 
     TEMPO 2520/2608 5000 BR SCT008 BKN015 
     PROB30 
     TEMPO 2604/2608 2000 BR SCT006 BKN015 
     BECMG 2609/2611 27010KT 9999 FEW020
       
TAF LGKC 251700Z 2518/2603 VRB05KT 9999 FEW018 
     BECMG 2518/2520 27010KT
       
LGKF 251750Z 32008KT 9999 FEW014 15/13 Q1019
TAF LGKF 251700Z 2518/2603 34010KT 9999 FEW020 
     BECMG 2518/2520 VRB03KT
       
LGKL 251920Z 32006KT CAVOK 13/10 Q1018
TAF LGKL 251700Z 2518/2603 VRB05KT 9999 FEW025
       
LGKO 251920Z 31009KT CAVOK 13/10 Q1016
TAF LGKO 251700Z 2518/2618 32012KT 9999 FEW025 
     BECMG 2610/2612 20010KT
       
LGKP 251920Z AUTO 29010KT //// // ////// 15/12 Q1017 RE//
TAF LGKP 251700Z 2518/2603 30016KT 9999 FEW020
       
LGKR 251920Z 24002KT 9999 FEW018 14/13 Q1019 NOSIG
TAF LGKR 251700Z 2518/2618 VRB05KT 9999 FEW014 
     BECMG 2608/2610 15010KT 
     PROB40 2600/2607 2000 BR SCT005 
     PROB30 2603/2606 0100 FG BKN004
       
LGKV 251920Z 01005KT 9999 FEW025 SCT080 13/09 Q1016
TAF LGKV 251700Z 2518/2603 VRB03KT 9999 FEW020 SCT080
       
LGAD 251920Z 00000KT CAVOK 11/10 Q1019
TAF LGAD 251700Z 2518/2603 30006KT 9999 FEW020
       
LGRX 251850Z 00000KT CAVOK 13/13 Q1019
TAF LGRX 251700Z 2518/2603 27008KT 9999 FEW020 
     BECMG 2518/2520 VRB03KT 8000 FEW008 SCT015 
     PROB30 
     TEMPO 2520/2603 5000 BR SCT008 BKN015
       
LGHI 251750Z 20004KT CAVOK 13/11 Q1016
TAF LGHI 251700Z 2518/2603 VRB05KT 9999 FEW020
       
LGRP 251920Z 24010KT CAVOK 15/13 Q1016 NOSIG
TAF LGRP 251700Z 2518/2618 25015KT 9999 FEW018
       
LGAL 251920Z VRB03KT 9999 FEW025 13/07 Q1017
TAF LGAL 251700Z 2518/2603 VRB03KT 9999 FEW020 
     BECMG 2519/2521 05010KT
       
LGEL 251920Z VRB03KT CAVOK 13/06 Q1017
TAF LGEL 251700Z 2518/2618 VRB05KT 9999 FEW025 
     BECMG 2601/2603 33010KT
       
LGAV 251920Z 26001KT CAVOK 14/08 Q1018 NOSIG
TAF LGAV 251700Z 2518/2618 VRB05KT 9999 FEW025 
     BECMG 2610/2612 04010KT
       
LGIO 251920Z AUTO /////KT //// -RA ////// 12/08 Q1019 RE//
TAF LGIO 251700Z 2518/2603 VRB03KT 9999 FEW035 
     PROB30 2600/2603 3000 BR SCT006
       
LGKR 251920Z 24002KT 9999 FEW018 14/13 Q1019 NOSIG
TAF LGKR 251700Z 2518/2618 VRB05KT 9999 FEW014 
     BECMG 2608/2610 15010KT 
     PROB40 2600/2607 2000 BR SCT005 
     PROB30 2603/2606 0100 FG BKN004
       
LGKL 251920Z 32006KT CAVOK 13/10 Q1018
TAF LGKL 251700Z 2518/2603 VRB05KT 9999 FEW025
       
LGKP 251920Z AUTO 29010KT //// // ////// 15/12 Q1017 RE//
TAF LGKP 251700Z 2518/2603 30016KT 9999 FEW020
       
TAF LGTL 251700Z 2518/2603 01008KT 9999 FEW020
       
LGKF 251750Z 32008KT 9999 FEW014 15/13 Q1019
TAF LGKF 251700Z 2518/2603 34010KT 9999 FEW020 
     BECMG 2518/2520 VRB03KT
       
TAF LGKC 251700Z 2518/2603 VRB05KT 9999 FEW018 
     BECMG 2518/2520 27010KT
       
LGKO 251920Z 31009KT CAVOK 13/10 Q1016
TAF LGKO 251700Z 2518/2618 32012KT 9999 FEW025 
     BECMG 2610/2612 20010KT
       
TAF LGLR 251700Z 2518/2603 VRB03KT 9999 FEW030
       
LGLM 251920Z AUTO VRB01KT //// // ////// 12/07 Q1016 RE//
TAF LGLM 251700Z 2518/2603 04008KT 9999 FEW020
       
LGTS 251920Z 13004KT 9999 -DZ FEW018TCU SCT030 17/08 Q1016 NOSIG
TAF LGTS 251700Z 2518/2618 VRB03KT 9999 FEW030 
     BECMG 2602/2604 5000 BR FEW008 
     PROB30 
     TEMPO 2604/2606 0600 FG BKN005 
     BECMG 2606/2608 9999 FEW030 
     BECMG 2610/2612 15010KT 9999 SCT030 
     TEMPO 2614/2618 6000 RA FEW010 SCT025 
     PROB40 
     TEMPO 2615/2618 3000 TSRA SCT008 FEW018CB BKN025 
     BECMG 2616/2618 34015KT
       
LGKV 251920Z 01005KT 9999 FEW025 SCT080 13/09 Q1016
TAF LGKV 251700Z 2518/2603 VRB03KT 9999 FEW020 SCT080
       
LGMK 251750Z 34004KT CAVOK 15/07 Q1017
TAF LGMK 251700Z 2518/2603 36010KT 9999 FEW020 
     BECMG 2518/2520 27010KT
       
LGMT 251920Z VRB03KT CAVOK 14/06 Q1017
TAF LGMT 251700Z 2518/2603 VRB05KT 9999 FEW020
       
LGBL 251850Z 27004KT CAVOK 12/07 Q1016
TAF LGBL 251700Z 2518/2603 11006KT 9999 FEW030 
     BECMG 2518/2520 28006KT
       
LGIR 251920Z 17006KT CAVOK 12/10 Q1018 NOSIG
TAF LGIR 251700Z 2518/2618 VRB05KT 9999 FEW020 
     BECMG 2518/2520 18010KT 
     BECMG 2607/2609 31012KT
       
LGAD 251920Z 00000KT CAVOK 11/10 Q1019
TAF LGAD 251700Z 2518/2603 30006KT 9999 FEW020
       
LGAL 251920Z VRB03KT 9999 FEW025 13/07 Q1017
TAF LGAL 251700Z 2518/2603 VRB03KT 9999 FEW020 
     BECMG 2519/2521 05010KT
       
LGAV 251920Z 26001KT CAVOK 14/08 Q1018 NOSIG
TAF LGAV 251700Z 2518/2618 VRB05KT 9999 FEW025 
     BECMG 2610/2612 04010KT
       
LGBL 251850Z 27004KT CAVOK 12/07 Q1016
TAF LGBL 251700Z 2518/2603 11006KT 9999 FEW030 
     BECMG 2518/2520 28006KT
       
LGEL 251920Z VRB03KT CAVOK 13/06 Q1017
TAF LGEL 251700Z 2518/2618 VRB05KT 9999 FEW025 
     BECMG 2601/2603 33010KT
       
LGHI 251750Z 20004KT CAVOK 13/11 Q1016
TAF LGHI 251700Z 2518/2603 VRB05KT 9999 FEW020
       
LGIO 251920Z AUTO /////KT //// -RA ////// 12/08 Q1019 RE//
TAF LGIO 251700Z 2518/2603 VRB03KT 9999 FEW035 
     PROB30 2600/2603 3000 BR SCT006
       
LGIR 251920Z 17006KT CAVOK 12/10 Q1018 NOSIG
TAF LGIR 251700Z 2518/2618 VRB05KT 9999 FEW020 
     BECMG 2518/2520 18010KT 
     BECMG 2607/2609 31012KT
       
TAF LGKC 251700Z 2518/2603 VRB05KT 9999 FEW018 
     BECMG 2518/2520 27010KT
       
LGKF 251750Z 32008KT 9999 FEW014 15/13 Q1019
TAF LGKF 251700Z 2518/2603 34010KT 9999 FEW020 
     BECMG 2518/2520 VRB03KT
       
LGKL 251920Z 32006KT CAVOK 13/10 Q1018
TAF LGKL 251700Z 2518/2603 VRB05KT 9999 FEW025
       
LGKO 251920Z 31009KT CAVOK 13/10 Q1016
TAF LGKO 251700Z 2518/2618 32012KT 9999 FEW025 
     BECMG 2610/2612 20010KT
       
LGKP 251920Z AUTO 29010KT //// // ////// 15/12 Q1017 RE//
TAF LGKP 251700Z 2518/2603 30016KT 9999 FEW020
       
LGKR 251920Z 24002KT 9999 FEW018 14/13 Q1019 NOSIG
TAF LGKR 251700Z 2518/2618 VRB05KT 9999 FEW014 
     BECMG 2608/2610 15010KT 
     PROB40 2600/2607 2000 BR SCT005 
     PROB30 2603/2606 0100 FG BKN004
       
LGKV 251920Z 01005KT 9999 FEW025 SCT080 13/09 Q1016
TAF LGKV 251700Z 2518/2603 VRB03KT 9999 FEW020 SCT080
       
LGLM 251920Z AUTO VRB01KT //// // ////// 12/07 Q1016 RE//
TAF LGLM 251700Z 2518/2603 04008KT 9999 FEW020
       
TAF LGLR 251700Z 2518/2603 VRB03KT 9999 FEW030
       
LGMK 251750Z 34004KT CAVOK 15/07 Q1017
TAF LGMK 251700Z 2518/2603 36010KT 9999 FEW020 
     BECMG 2518/2520 27010KT
       
LGMT 251920Z VRB03KT CAVOK 14/06 Q1017
TAF LGMT 251700Z 2518/2603 VRB05KT 9999 FEW020
       
LGPA 251920Z AUTO 05004KT //// // ////// 12/06 Q1017 RE//
LGPZ 251850Z 28006KT 9999 BKN025 OVC080 15/11 Q1019
TAF LGPZ 251700Z 2518/2618 27010KT 9999 FEW020 
     BECMG 2518/2520 05007KT 8000 FEW008 SCT015 
     PROB40 
     TEMPO 2520/2608 5000 BR SCT008 BKN015 
     PROB30 
     TEMPO 2604/2608 2000 BR SCT006 BKN015 
     BECMG 2609/2611 27010KT 9999 FEW020
       
LGRP 251920Z 24010KT CAVOK 15/13 Q1016 NOSIG
TAF LGRP 251700Z 2518/2618 25015KT 9999 FEW018
       
LGRX 251850Z 00000KT CAVOK 13/13 Q1019
TAF LGRX 251700Z 2518/2603 27008KT 9999 FEW020 
     BECMG 2518/2520 VRB03KT 8000 FEW008 SCT015 
     PROB30 
     TEMPO 2520/2603 5000 BR SCT008 BKN015
       
LGSA 251920Z 00000KT CAVOK 13/09 Q1018
TAF LGSA 251700Z 2518/2618 32010KT 9999 FEW025 
     BECMG 2607/2609 30012G22KT
       
LGSK 251750Z 02005KT CAVOK 14/11 Q1016
TAF LGSK 251700Z 2518/2603 VRB05KT 9999 FEW020
       
TAF LGSM 251700Z 2518/2603 VRB05KT 9999 FEW020
       
LGSR 251920Z 26007KT CAVOK 16/12 Q1017
TAF LGSR 251700Z 2518/2618 30014KT 9999 FEW020 
     BECMG 2602/2604 24015KT 9999 FEW015 
     TEMPO 2605/2609 SCT015
       
TAF LGST 251700Z 2518/2603 30012KT 9999 FEW030
       
TAF LGSY 251700Z 2518/2603 32008KT 9999 FEW025
       
TAF LGTG 251700Z 2518/2603 29006KT 9999 FEW030
       
TAF LGTL 251700Z 2518/2603 01008KT 9999 FEW020
       
LGTS 251920Z 13004KT 9999 -DZ FEW018TCU SCT030 17/08 Q1016 NOSIG
TAF LGTS 251700Z 2518/2618 VRB03KT 9999 FEW030 
     BECMG 2602/2604 5000 BR FEW008 
     PROB30 
     TEMPO 2604/2606 0600 FG BKN005 
     BECMG 2606/2608 9999 FEW030 
     BECMG 2610/2612 15010KT 9999 SCT030 
     TEMPO 2614/2618 6000 RA FEW010 SCT025 
     PROB40 
     TEMPO 2615/2618 3000 TSRA SCT008 FEW018CB BKN025 
     BECMG 2616/2618 34015KT
       
LGZA 251750Z 00000KT 9999 FEW025 15/14 Q1019
TAF LGZA 251700Z 2518/2603 VRB05KT 9999 FEW025
       
LGAD 251920Z 00000KT CAVOK 11/10 Q1019
TAF LGAD 251700Z 2518/2603 30006KT 9999 FEW020
       
LGAL 251920Z VRB03KT 9999 FEW025 13/07 Q1017
TAF LGAL 251700Z 2518/2603 VRB03KT 9999 FEW020 
     BECMG 2519/2521 05010KT
       
LGAV 251920Z 26001KT CAVOK 14/08 Q1018 NOSIG
TAF LGAV 251700Z 2518/2618 VRB05KT 9999 FEW025 
     BECMG 2610/2612 04010KT
       
LGBL 251850Z 27004KT CAVOK 12/07 Q1016
TAF LGBL 251700Z 2518/2603 11006KT 9999 FEW030 
     BECMG 2518/2520 28006KT
       
LGEL 251920Z VRB03KT CAVOK 13/06 Q1017
TAF LGEL 251700Z 2518/2618 VRB05KT 9999 FEW025 
     BECMG 2601/2603 33010KT
       
LGHI 251750Z 20004KT CAVOK 13/11 Q1016
TAF LGHI 251700Z 2518/2603 VRB05KT 9999 FEW020
       
LGIO 251920Z AUTO /////KT //// -RA ////// 12/08 Q1019 RE//
TAF LGIO 251700Z 2518/2603 VRB03KT 9999 FEW035 
     PROB30 2600/2603 3000 BR SCT006
       
LGIR 251920Z 17006KT CAVOK 12/10 Q1018 NOSIG
TAF LGIR 251700Z 2518/2618 VRB05KT 9999 FEW020 
     BECMG 2518/2520 18010KT 
     BECMG 2607/2609 31012KT
       
TAF LGKC 251700Z 2518/2603 VRB05KT 9999 FEW018 
     BECMG 2518/2520 27010KT
       
LGKF 251750Z 32008KT 9999 FEW014 15/13 Q1019
TAF LGKF 251700Z 2518/2603 34010KT 9999 FEW020 
     BECMG 2518/2520 VRB03KT
       
LGKL 251920Z 32006KT CAVOK 13/10 Q1018
TAF LGKL 251700Z 2518/2603 VRB05KT 9999 FEW025
       
LGKO 251920Z 31009KT CAVOK 13/10 Q1016
TAF LGKO 251700Z 2518/2618 32012KT 9999 FEW025 
     BECMG 2610/2612 20010KT
       
LGKP 251920Z AUTO 29010KT //// // ////// 15/12 Q1017 RE//
TAF LGKP 251700Z 2518/2603 30016KT 9999 FEW020
       
LGKR 251920Z 24002KT 9999 FEW018 14/13 Q1019 NOSIG
TAF LGKR 251700Z 2518/2618 VRB05KT 9999 FEW014 
     BECMG 2608/2610 15010KT 
     PROB40 2600/2607 2000 BR SCT005 
     PROB30 2603/2606 0100 FG BKN004
       
LGKV 251920Z 01005KT 9999 FEW025 SCT080 13/09 Q1016
TAF LGKV 251700Z 2518/2603 VRB03KT 9999 FEW020 SCT080
       
LGLM 251920Z AUTO VRB01KT //// // ////// 12/07 Q1016 RE//
TAF LGLM 251700Z 2518/2603 04008KT 9999 FEW020
       
TAF LGLR 251700Z 2518/2603 VRB03KT 9999 FEW030
       
LGMK 251750Z 34004KT CAVOK 15/07 Q1017
TAF LGMK 251700Z 2518/2603 36010KT 9999 FEW020 
     BECMG 2518/2520 27010KT
       
LGMT 251920Z VRB03KT CAVOK 14/06 Q1017
TAF LGMT 251700Z 2518/2603 VRB05KT 9999 FEW020
       
LGPA 251920Z AUTO 05004KT //// // ////// 12/06 Q1017 RE//
LGPZ 251850Z 28006KT 9999 BKN025 OVC080 15/11 Q1019
TAF LGPZ 251700Z 2518/2618 27010KT 9999 FEW020 
     BECMG 2518/2520 05007KT 8000 FEW008 SCT015 
     PROB40 
     TEMPO 2520/2608 5000 BR SCT008 BKN015 
     PROB30 
     TEMPO 2604/2608 2000 BR SCT006 BKN015 
     BECMG 2609/2611 27010KT 9999 FEW020
       
LGRP 251920Z 24010KT CAVOK 15/13 Q1016 NOSIG
TAF LGRP 251700Z 2518/2618 25015KT 9999 FEW018
       
LGRX 251850Z 00000KT CAVOK 13/13 Q1019
TAF LGRX 251700Z 2518/2603 27008KT 9999 FEW020 
     BECMG 2518/2520 VRB03KT 8000 FEW008 SCT015 
     PROB30 
     TEMPO 2520/2603 5000 BR SCT008 BKN015
       
LGSA 251920Z 00000KT CAVOK 13/09 Q1018
TAF LGSA 251700Z 2518/2618 32010KT 9999 FEW025 
     BECMG 2607/2609 30012G22KT
       
LGSK 251750Z 02005KT CAVOK 14/11 Q1016
TAF LGSK 251700Z 2518/2603 VRB05KT 9999 FEW020
       
TAF LGSM 251700Z 2518/2603 VRB05KT 9999 FEW020
       
LGSR 251920Z 26007KT CAVOK 16/12 Q1017
TAF LGSR 251700Z 2518/2618 30014KT 9999 FEW020 
     BECMG 2602/2604 24015KT 9999 FEW015 
     TEMPO 2605/2609 SCT015
       
TAF LGST 251700Z 2518/2603 30012KT 9999 FEW030
       
TAF LGSY 251700Z 2518/2603 32008KT 9999 FEW025
       
TAF LGTG 251700Z 2518/2603 29006KT 9999 FEW030
       
TAF LGTL 251700Z 2518/2603 01008KT 9999 FEW020
       
LGTS 251920Z 13004KT 9999 -DZ FEW018TCU SCT030 17/08 Q1016 NOSIG
TAF LGTS 251700Z 2518/2618 VRB03KT 9999 FEW030 
     BECMG 2602/2604 5000 BR FEW008 
     PROB30 
     TEMPO 2604/2606 0600 FG BKN005 
     BECMG 2606/2608 9999 FEW030 
     BECMG 2610/2612 15010KT 9999 SCT030 
     TEMPO 2614/2618 6000 RA FEW010 SCT025 
     PROB40 
     TEMPO 2615/2618 3000 TSRA SCT008 FEW018CB BKN025 
     BECMG 2616/2618 34015KT
       
LGZA 251750Z 00000KT 9999 FEW025 15/14 Q1019
TAF LGZA 251700Z 2518/2603 VRB05KT 9999 FEW025
       
TAF LGSM 251700Z 2518/2603 VRB05KT 9999 FEW020
       
LGSR 251920Z 26007KT CAVOK 16/12 Q1017
TAF LGSR 251700Z 2518/2618 30014KT 9999 FEW020 
     BECMG 2602/2604 24015KT 9999 FEW015 
     TEMPO 2605/2609 SCT015
       
LGSK 251750Z 02005KT CAVOK 14/11 Q1016
TAF LGSK 251700Z 2518/2603 VRB05KT 9999 FEW020
       
TAF LGSY 251700Z 2518/2603 32008KT 9999 FEW025
       
LGSA 251920Z 00000KT CAVOK 13/09 Q1018
TAF LGSA 251700Z 2518/2618 32010KT 9999 FEW025 
     BECMG 2607/2609 30012G22KT
       
TAF LGTG 251700Z 2518/2603 29006KT 9999 FEW030
       
LGAD 251920Z 00000KT CAVOK 11/10 Q1019
TAF LGAD 251700Z 2518/2603 30006KT 9999 FEW020
       
LGAL 251920Z VRB03KT 9999 FEW025 13/07 Q1017
TAF LGAL 251700Z 2518/2603 VRB03KT 9999 FEW020 
     BECMG 2519/2521 05010KT
       
LGAV 251920Z 26001KT CAVOK 14/08 Q1018 NOSIG
TAF LGAV 251700Z 2518/2618 VRB05KT 9999 FEW025 
     BECMG 2610/2612 04010KT
       
LGBL 251850Z 27004KT CAVOK 12/07 Q1016
TAF LGBL 251700Z 2518/2603 11006KT 9999 FEW030 
     BECMG 2518/2520 28006KT
       
LGEL 251920Z VRB03KT CAVOK 13/06 Q1017
TAF LGEL 251700Z 2518/2618 VRB05KT 9999 FEW025 
     BECMG 2601/2603 33010KT
       
LGHI 251750Z 20004KT CAVOK 13/11 Q1016
TAF LGHI 251700Z 2518/2603 VRB05KT 9999 FEW020
       
LGIO 251920Z AUTO /////KT //// -RA ////// 12/08 Q1019 RE//
TAF LGIO 251700Z 2518/2603 VRB03KT 9999 FEW035 
     PROB30 2600/2603 3000 BR SCT006
       
LGIR 251920Z 17006KT CAVOK 12/10 Q1018 NOSIG
TAF LGIR 251700Z 2518/2618 VRB05KT 9999 FEW020 
     BECMG 2518/2520 18010KT 
     BECMG 2607/2609 31012KT
       
TAF LGKC 251700Z 2518/2603 VRB05KT 9999 FEW018 
     BECMG 2518/2520 27010KT
       
LGKF 251750Z 32008KT 9999 FEW014 15/13 Q1019
TAF LGKF 251700Z 2518/2603 34010KT 9999 FEW020 
     BECMG 2518/2520 VRB03KT
       
LGKL 251920Z 32006KT CAVOK 13/10 Q1018
TAF LGKL 251700Z 2518/2603 VRB05KT 9999 FEW025
       
LGKO 251920Z 31009KT CAVOK 13/10 Q1016
TAF LGKO 251700Z 2518/2618 32012KT 9999 FEW025 
     BECMG 2610/2612 20010KT
       
LGKP 251920Z AUTO 29010KT //// // ////// 15/12 Q1017 RE//
TAF LGKP 251700Z 2518/2603 30016KT 9999 FEW020
       
LGKR 251920Z 24002KT 9999 FEW018 14/13 Q1019 NOSIG
TAF LGKR 251700Z 2518/2618 VRB05KT 9999 FEW014 
     BECMG 2608/2610 15010KT 
     PROB40 2600/2607 2000 BR SCT005 
     PROB30 2603/2606 0100 FG BKN004
       
LGKV 251920Z 01005KT 9999 FEW025 SCT080 13/09 Q1016
TAF LGKV 251700Z 2518/2603 VRB03KT 9999 FEW020 SCT080
       
LGLM 251920Z AUTO VRB01KT //// // ////// 12/07 Q1016 RE//
TAF LGLM 251700Z 2518/2603 04008KT 9999 FEW020
       
TAF LGLR 251700Z 2518/2603 VRB03KT 9999 FEW030
       
LGMK 251750Z 34004KT CAVOK 15/07 Q1017
TAF LGMK 251700Z 2518/2603 36010KT 9999 FEW020 
     BECMG 2518/2520 27010KT
       
LGMT 251920Z VRB03KT CAVOK 14/06 Q1017
TAF LGMT 251700Z 2518/2603 VRB05KT 9999 FEW020
       
LGPA 251920Z AUTO 05004KT //// // ////// 12/06 Q1017 RE//
LGPZ 251850Z 28006KT 9999 BKN025 OVC080 15/11 Q1019
TAF LGPZ 251700Z 2518/2618 27010KT 9999 FEW020 
     BECMG 2518/2520 05007KT 8000 FEW008 SCT015 
     PROB40 
     TEMPO 2520/2608 5000 BR SCT008 BKN015 
     PROB30 
     TEMPO 2604/2608 2000 BR SCT006 BKN015 
     BECMG 2609/2611 27010KT 9999 FEW020
       
LGRP 251920Z 24010KT CAVOK 15/13 Q1016 NOSIG
TAF LGRP 251700Z 2518/2618 25015KT 9999 FEW018
       
LGRX 251850Z 00000KT CAVOK 13/13 Q1019
TAF LGRX 251700Z 2518/2603 27008KT 9999 FEW020 
     BECMG 2518/2520 VRB03KT 8000 FEW008 SCT015 
     PROB30 
     TEMPO 2520/2603 5000 BR SCT008 BKN015
       
LGSA 251920Z 00000KT CAVOK 13/09 Q1018
TAF LGSA 251700Z 2518/2618 32010KT 9999 FEW025 
     BECMG 2607/2609 30012G22KT
       
LGSK 251750Z 02005KT CAVOK 14/11 Q1016
TAF LGSK 251700Z 2518/2603 VRB05KT 9999 FEW020
       
TAF LGSM 251700Z 2518/2603 VRB05KT 9999 FEW020
       
LGSR 251920Z 26007KT CAVOK 16/12 Q1017
TAF LGSR 251700Z 2518/2618 30014KT 9999 FEW020 
     BECMG 2602/2604 24015KT 9999 FEW015 
     TEMPO 2605/2609 SCT015
       
TAF LGST 251700Z 2518/2603 30012KT 9999 FEW030
       
TAF LGSY 251700Z 2518/2603 32008KT 9999 FEW025
       
TAF LGTG 251700Z 2518/2603 29006KT 9999 FEW030
       
TAF LGTL 251700Z 2518/2603 01008KT 9999 FEW020
       
LGTS 251920Z 13004KT 9999 -DZ FEW018TCU SCT030 17/08 Q1016 NOSIG
TAF LGTS 251700Z 2518/2618 VRB03KT 9999 FEW030 
     BECMG 2602/2604 5000 BR FEW008 
     PROB30 
     TEMPO 2604/2606 0600 FG BKN005 
     BECMG 2606/2608 9999 FEW030 
     BECMG 2610/2612 15010KT 9999 SCT030 
     TEMPO 2614/2618 6000 RA FEW010 SCT025 
     PROB40 
     TEMPO 2615/2618 3000 TSRA SCT008 FEW018CB BKN025 
     BECMG 2616/2618 34015KT
       
LGZA 251750Z 00000KT 9999 FEW025 15/14 Q1019
TAF LGZA 251700Z 2518/2603 VRB05KT 9999 FEW025
       
LGZA 251750Z 00000KT 9999 FEW025 15/14 Q1019
TAF LGZA 251700Z 2518/2603 VRB05KT 9999 FEW025